"Pseudo-MPEC" for P11TFCU

Created 2024 Apr 23 14:22:06 UT using Find_Orb

Click here for an explanation of pseudo-MPECs

 
 Astrometry: 
     P11TFCU* C2024 04 18@AEbm._fehk[@tgAstrometryIvIPdredacted;.buIpDiJeh2YvF51
     P11TFCU  C2024 04 18LQh=^3x!SLhWIkaclickgyIbqs3b][QJn'PDr=\+o]8A%ojqW2pZF51
     P11TFCU  C2024 04 18NhSa^hereysGIBNSBLKfor9/0.FHOLrtw),mc45qvM3O!4Rw+sCVF51
     P11TFCU  C2024 04 182,f@RhIX:CUw)#alXntECu3OrOZkL6explanationWXVQeDC_xy\F51

Station data:
(F51) Pan-STARRS 1, Haleakala  (N20.707234 W156.255910)  US/Hawaii.
   Observers J. Bulger, T. Lowe, A. Schultz, M. Willman. Measurers K.
   Chambers, S. Chastel, T. de Boer, L. Denneau, J. Fairlamb, H. Flewelling,
   M. Huber, C.-C. Lin, E. Magnier, Y. Ramanjooloo, R. Wainscoat, R. Weryk.
   1.8-m Ritchey-Chrétien + CCD.

Orbital elements:  P11TFCU
   Perihelion 2024 Mar 8.15914 +/- 78.1 TT =  3:49:10 (JD 2460377.65914)
Epoch 2024 Apr 19.0 TT = JDT 2460419.5   Earth MOID: 0.1863   Ju: 0.8412
M   7.82989585 +/- 80               Ma: 0.0284                   AutoNEOCP
n   0.18713517 +/- 0.318            Peri.   99.64154 +/- 100
a   3.02713949 +/- 3.43             Node    72.24877 +/- 29
e   0.6606400 +/- 0.205             Incl.   11.98176 +/- 20
P   5.27                   H 22.21  G  0.15   U 12.0  SR
q 1.02728991 +/- 0.35    Q 5.02698907 +/- 2.55            (J2000 ecliptic)
From 4 observations 2024 Apr. 18 (40.7 min); mean residual 0".25
Residuals in arcseconds: 
240418 F51  .15+  .16-    240418 F51  .10-  .52+    
240418 F51  .17-  .02-    240418 F51  .13+  .34-    

Ephemerides (geocentric):
Date (UTC) HH   RA             Dec           delta  r     elong  mag " sig PA
---- --------  ------------   ------------  ------ ------ -----  --- --------
2024 04 23 14  17 32 44.554   +01 39 37.99  .29267 1.2032 126.6 21.6  49d 100
2024 04 23 15  17 32 41.615   +01 37 38.96  .29277 1.2035 126.6 21.6  49d  99
2024 04 23 16  17 32 38.670   +01 35 39.97  .29288 1.2037 126.7 21.6  49d  99
2024 04 23 17  17 32 35.719   +01 33 41.04  .29298 1.2040 126.8 21.6  50d  99
2024 04 23 18  17 32 32.764   +01 31 42.16  .29309 1.2043 126.8 21.6  50d  98
2024 04 23 19  17 32 29.803   +01 29 43.32  .29319 1.2046 126.9 21.6  50d  98
2024 04 23 20  17 32 26.837   +01 27 44.54  .29330 1.2049 126.9 21.6  50d  98
2024 04 23 21  17 32 23.865   +01 25 45.81  .29340 1.2051 127.0 21.6  50d  97
2024 04 23 22  17 32 20.889   +01 23 47.13  .29351 1.2054 127.0 21.6  50d  97
2024 04 23 23  17 32 17.907   +01 21 48.50  .29362 1.2057 127.1 21.6  50d  97
2024 04 24 00  17 32 14.919   +01 19 49.92  .29372 1.2060 127.1 21.6  50d  97
2024 04 24 01  17 32 11.927   +01 17 51.39  .29383 1.2063 127.2 21.6  50d  97
2024 04 24 02  17 32 08.929   +01 15 52.91  .29394 1.2066 127.3 21.6  50d  96
2024 04 24 03  17 32 05.926   +01 13 54.49  .29404 1.2068 127.3 21.6  50d  96
2024 04 24 04  17 32 02.917   +01 11 56.11  .29415 1.2071 127.4 21.6  50d  96
2024 04 24 05  17 31 59.904   +01 09 57.79  .29426 1.2074 127.4 21.6  50d  96
2024 04 24 06  17 31 56.885   +01 07 59.51  .29436 1.2077 127.5 21.6  50d  96
2024 04 24 07  17 31 53.861   +01 06 01.29  .29447 1.2080 127.5 21.6  50d  96
2024 04 24 08  17 31 50.832   +01 04 03.12  .29458 1.2083 127.6 21.6  50d  96
2024 04 24 09  17 31 47.797   +01 02 05.00  .29469 1.2085 127.7 21.6  50d  96
2024 04 24 10  17 31 44.757   +01 00 06.93  .29480 1.2088 127.7 21.6  50d  96
2024 04 24 11  17 31 41.713   +00 58 08.91  .29490 1.2091 127.8 21.6  50d  95
2024 04 24 12  17 31 38.662   +00 56 10.95  .29501 1.2094 127.8 21.6  50d  95
2024 04 24 13  17 31 35.607   +00 54 13.03  .29512 1.2097 127.9 21.6  50d  95
2024 04 24 14  17 31 32.547   +00 52 15.17  .29523 1.2100 127.9 21.6  50d  95
2024 04 24 15  17 31 29.481   +00 50 17.36  .29534 1.2102 128.0 21.6  50d  95
2024 04 24 16  17 31 26.410   +00 48 19.60  .29545 1.2105 128.0 21.6  50d  95
2024 04 24 17  17 31 23.334   +00 46 21.89  .29556 1.2108 128.1 21.6  50d  95
2024 04 24 18  17 31 20.253   +00 44 24.24  .29566 1.2111 128.2 21.6  50d  95
2024 04 24 19  17 31 17.166   +00 42 26.64  .29577 1.2114 128.2 21.6  50d  95
2024 04 24 20  17 31 14.075   +00 40 29.08  .29588 1.2117 128.3 21.6  50d  95
2024 04 24 21  17 31 10.978   +00 38 31.58  .29599 1.2119 128.3 21.6  50d  95
2024 04 24 22  17 31 07.876   +00 36 34.14  .29610 1.2122 128.4 21.6  50d  95
2024 04 24 23  17 31 04.769   +00 34 36.74  .29621 1.2125 128.4 21.6  50d  94
2024 04 25 00  17 31 01.657   +00 32 39.40  .29632 1.2128 128.5 21.6  50d  94
2024 04 25 01  17 30 58.540   +00 30 42.11  .29643 1.2131 128.6 21.6  50d  94
2024 04 25 02  17 30 55.417   +00 28 44.87  .29654 1.2134 128.6 21.6  50d  94
2024 04 25 03  17 30 52.290   +00 26 47.68  .29665 1.2137 128.7 21.6  50d  94
2024 04 25 04  17 30 49.157   +00 24 50.55  .29676 1.2139 128.7 21.6  50d  94
2024 04 25 05  17 30 46.019   +00 22 53.47  .29688 1.2142 128.8 21.6  50d  94
2024 04 25 06  17 30 42.877   +00 20 56.44  .29699 1.2145 128.8 21.6  50d  94
2024 04 25 07  17 30 39.729   +00 18 59.47  .29710 1.2148 128.9 21.6  50d  94
2024 04 25 08  17 30 36.576   +00 17 02.54  .29721 1.2151 129.0 21.6  50d  94
2024 04 25 09  17 30 33.417   +00 15 05.67  .29732 1.2154 129.0 21.6  50d  94
2024 04 25 10  17 30 30.254   +00 13 08.86  .29743 1.2157 129.1 21.6  50d  94
2024 04 25 11  17 30 27.086   +00 11 12.09  .29754 1.2160 129.1 21.6  50d  94
2024 04 25 12  17 30 23.913   +00 09 15.38  .29766 1.2162 129.2 21.6  50d  94
2024 04 25 13  17 30 20.734   +00 07 18.73  .29777 1.2165 129.2 21.6  50d  94